Location: Rounton
(54.4000°N, 1.3500°W)
Time: 05:06:43
(UTC+00:00)

S-56A Canister/Altair - Pass Details

Date: 07 December 2021
Orbit: 633 x 2499 km, 38.9° (Epoch: 17 January)

Event Time Altitude Azimuth Distance (km) Brightness Sun altitude
Rises 03:41:41 0° 260° (W) 4,196 - -37.7°
Reaches altitude 10° 03:47:07 10° 231° (SW) 2,766 - -36.9°
Maximum altitude 03:49:08 12° 212° (SSW) 2,495 - -36.6°
Drops below altitude 10° 03:50:59 10° 193° (SSW) 2,467 - -36.4°
Sets 03:55:01 0° 160° (SSE) 3,134 - -35.8°
